Holy Cross Airport
PAHC : rendu visible

Aérodrome :











RETROUVEZ-NOUS SUR...

 
LOGIN :

S'inscrire | Disclaimer

   EN    FR    IT 

 









Légende :    VFR   VFR Marginal   IFR   IFR Intensif   IFR Très Intensif
Visi : 
Plafond : 
>= 8 km
>= 3000ft
5 à 8 km
1000 à 3000 ft
1500m à 5 km
500 à 1000 ft
800 à 1500m
200 à 500 ft
< 800m
< 200 ft
Symboles :   Orages  Brouillard  Fortes neiges  Fortes précipitations  Vent > 20 kt






- Altitude de l'aérodrome : 70 ft
- Code IATA : HCR


PAHC - Holy Cross

DERNIER METAR :
  • 120956Z AUTO 00000KT 10SM OVC080 13/11 A2971 RMK AO2 SLP064 T01280106 PWINO

METARs EXPIRÉS :
  • 120856Z AUTO 01003KT 10SM CLR 13/11 A2971 RMK AO2 SLP062 T01330111 401720111 53005 PWINO
  • 120756Z AUTO 03003KT 10SM OVC080 14/12 A2970 RMK AO2 SLP060 T01440117 PWINO

TAF N/A
FIR PAZA / Amérique du Nord



MET'MAP, la Météo Aéronautique d'un coup d'oeil ! - Copyright ORBIFLY Décembre 2007 - Disclaimer

ORBIFLY MET'MAP TEAM :

Programmation & Développement : Alexandra Zaïnal
Sur une idée originale de : Baudouin d'Aumeries
Assistance à la programmation : Marc-Olivier Méhu
Soutien technique & logistique : Manuel Goepfert

Contact : metmap@orbifly.com




SOURCES & CREDITS :

   NOAA       Earth
Advisory